DELTA 1 R/B, 2436

Orbit data source: Space-Track

DELTA 1 R/B, 2436 is space debris in SSO originally from a launch on Sun, 02 Oct 1966 UTC launched from the Air Force Western Test Range (AFWTR). Debris objects in space refer to the collection of defunct objects orbiting the Earth. Examples of debris include non-operational satellites, rocket bodies, and fragments generated from explosions, collisions, or faulty payload assembly.

Loading next visibility...
Identifier
2436, 1966-087B
Orbit
SSO
Country
Flag of USUS
Related business
Manufacturer
ABL
Mission
Spacecraft
Bus & Motor
ALTAIR, Unknown motor
Mass
33 kg wet, 33 kg dry
Launch date (UTC)
1966-10-02 (59 years ago)
Launch vehicle
Unknown
Launch site
Air Force Western Test Range (AFWTR)
Object type
Payload
Rocket body
Debris
Shape & HBR
Unknown
Radar Cross Section
Medium (>0.1 m² and <1 m²)

Expand to show TLE details & history
Last TLE update: 1 day ago

TLE from 1 day ago
0 DELTA 1 R/B
1 02436U 66087B   25310.82979454 -.00000004  00000-0  21618-3 0  9997
2 02436 101.0112 273.0409 0065557 113.0796 247.7210 12.57666490712158
Epoch: 2025-11-06T19:54Z
TLE epoch observation values (Epoch: 2025-11-06T19:54:54.248Z)
Latitude
0.00004°
Longitude
-71.96763°
Altitude
1,454.905 km
Speed
7.126 km/s
True Right ascension
18h 12m 09s
True Declination
0° 00' 00"
Sunlit
Object was in daylight at epoch
Visualization orbit readout
Latitude
Unknown
Longitude
Unknown
Altitude
Unknown
Speed
Unknown
Apparent Right ascension
Unknown
Apparent Declination
Unknown
Sunlit
N/A
Visualization observer readout
Local Sidereal Time
16:54:01
Azimuth
Unknown
Elevation
Unknown
Doppler factor
Unknown
Orbital elements
Apogee altitude
1,481.274 km
Perigee altitude
1,378.897 km
Semi-major axis
7,808.223 km
Eccentricity
0.00656
Inclination
101.0112°
RAAN
273.0409°
Arg. of periapsis
113.0796°
True anomaly
247.02802°
Mean anomaly
247.721°
Eccentric anomaly
247.37429°
Mean motion
3.14568 °/min
Orbital period
114.44 mins
BSTAR
0.00021618
Loading maneuver chart data...
Computing Atmospheric mass density...
Loading historical data...
Loading historical data...
Loading historical data...
Loading historical data...
Loading historical data...
Loading historical data...
Loading historical data...
Other satellites on launch #87 in the year 1966 (1966-10-02 UTC)

Documentation

Showing up to 5 results
|